Content
SEND FEEDBACK

Daily
Averages
Monthly
Summary
United States of America

RAPID CITY, SOUTH DAKOTA


Home > North America > United States > South Dakota
Elevation: 3162 feet     Latitude: 44 03N     Longitude: 103 04W

WEATHER
 
SELECT A DAY
Number of Records: 200,329;   Date Range: 1/1/95 - 7/29/14
 
SHARE

PRINT THIS DATA

[ ← Previous Day ]
WEATHER ALMANAC - MARCH 29, 2014
[ Next Day → ]
[ °C ]   °F
Weather ElementAverageHighLow
Temperature49.5 °F70 °F (4:52 pm)24.1 °F (5:52 am)
Dewpoint24.8 °F33.1 °F (11:52 pm)19.9 °F (5:52 am)
Humidity47 %88 % (3:52 am)17 % (3:48 pm)
Barometer29.86 in30.14 in (1:52 am)29.69 in (4:52 pm)
Wind Speed10.6 mph32.2 mph (10:52 pm)
Wind Gust39.1 mph (10:52 pm)
Weather ElementAverage
Visibility10 mi
Wind DirectionSSW (196.3 °)

Weather ElementTotal
Precipitation---
Heating Degree Days18 (Base 65)
Averaged from 24 records on March 29, 2014
WEATHER CONDITIONS BREAKOUT
WIND DIRECTION BREAKOUT
WEATHER BY HOUR - MARCH 29, 2014
[ °C ]   °F
Local TimeTemperatureDewpointHumidityBarometerVisibilityWind DirectionWind SpeedGust SpeedPrecipitationEventsConditions
1:52 AM28.0 °F23.0 °F81 %30.14 in10.0 miSouth (170°)11.5 mphClear
2:52 AM28.0 °F24.1 °F85 %30.11 in10.0 miSouth (180°)11.5 mphClear
3:52 AM25.0 °F21.9 °F88 %30.08 in10.0 miSSE (150°)9.2 mphClear
4:52 AM28.0 °F23.0 °F81 %30.04 in10.0 miSouth (190°)8.1 mphClear
5:52 AM24.1 °F19.9 °F84 %30.03 in10.0 miESE (120°)3.5 mphClear
6:52 AM24.1 °F19.9 °F84 %30.04 in10.0 miCalmClear
7:52 AM28.0 °F24.1 °F85 %30.02 in10.0 miCalmClear
8:52 AM35.1 °F28.0 °F76 %29.98 in10.0 miCalmClear
9:52 AM46.0 °F32.0 °F58 %29.94 in10.0 miSSE (150°)4.6 mphClear
10:52 AM57.0 °F26.1 °F30 %29.89 in10.0 miWSW (240°)5.8 mphClear
11:52 AM61.0 °F25.0 °F25 %29.86 in10.0 miVariable6.9 mphClear
12:52 PM64.9 °F23.0 °F20 %29.81 in10.0 miWNW (290°)16.1 mphClear
1:52 PM66.9 °F24.1 °F20 %29.77 in10.0 miWSW (250°)16.1 mph24.2 mphClear
2:52 PM68.0 °F23.0 °F18 %29.74 in10.0 miWest (270°)15.0 mphClear
3:48 PM69.8 °F23.0 °F17 %29.71 in10.0 miWSW (250°)19.6 mphClear
3:52 PM69.1 °F23.0 °F18 %29.72 in10.0 miWest (260°)13.8 mph21.9 mphClear
4:52 PM70.0 °F24.1 °F18 %29.69 in10.0 miWest (270°)13.8 mphClear
5:52 PM69.1 °F23.0 °F18 %29.69 in10.0 miWest (260°)20.7 mph27.6 mphClear
6:52 PM63.0 °F24.1 °F23 %29.71 in10.0 miWSW (250°)6.9 mphMostly Cloudy
7:52 PM55.9 °F25.0 °F30 %29.73 in10.0 miWSW (250°)5.8 mphPartly Cloudy
8:52 PM57.0 °F25.0 °F29 %29.71 in10.0 miWest (260°)9.2 mphPartly Cloudy
9:52 PM52.0 °F26.1 °F37 %29.72 in10.0 miWSW (240°)5.8 mphClear
10:52 PM51.1 °F32.0 °F48 %29.74 in10.0 miNW (320°)32.2 mph39.1 mphClear
11:52 PM48.0 °F33.1 °F56 %29.78 in10.0 miNNW (340°)18.4 mphClear
Hourly data recorded from KRAP, located miles away from Rapid City, South Dakota







STORIES FROM OUR PARTNERS